Location: Standeford and Andreas Observatories
(44.1397°N, 93.9969°W)
Time: 21:53:50
(UTC-05:00)

Cosmos 1500 Rocket - Visible Passes

Search period start: 26 July 2017 00:00
Search period end: 05 August 2017 00:00
Orbit: 602 x 633 km, 82.5° (Epoch: 26 July)

Date Brightness Start Highest point End Pass type
(mag) Time Alt. Az. Time Alt. Az. Time Alt. Az.
26 Jul 6.6 05:10:09 10° NNE 05:13:11 18° ENE 05:16:12 10° ESE visible
27 Jul 5.7 05:26:24 10° N 05:30:17 31° ENE 05:34:10 10° SE visible
29 Jul 7.0 04:24:52 10° NE 04:25:47 11° ENE 04:26:43 10° ENE visible
30 Jul 6.5 04:39:56 10° NNE 04:43:00 18° ENE 04:46:04 10° ESE visible
31 Jul 5.5 04:56:12 10° N 05:00:07 32° ENE 05:04:01 10° SE visible
01 Aug 4.3 05:12:49 10° N 05:17:07 57° E 05:21:25 10° SSE visible
02 Aug 6.8 03:54:34 10° NE 03:55:38 11° ENE 03:56:40 10° E visible
02 Aug 3.5 05:29:40 10° NNW 05:34:02 77° W 05:38:23 10° S visible
03 Aug 6.3 04:09:44 10° NNE 04:12:50 19° ENE 04:15:56 10° ESE visible
04 Aug 5.4 04:26:01 10° N 04:29:56 32° ENE 04:33:52 10° SE visible
